| time (UTC) | temp C | wind direction | speed KPH | gust KPH | rain 1hr cm | rain 24hr cm | rain mn cm | humidity % | barometer mb |
| 20260904000516 | 27 | 0.0 | 0.0 | 0.00 | 0.00 | 0.00 | 94 | 1015.5 | |
| 20260903235516 | 28 | 0.0 | 0.0 | 0.00 | 0.00 | 0.00 | 94 | 1015.2 | |
| 20260903234516 | 28 | 0.0 | 0.0 | 0.00 | 0.00 | 0.00 | 93 | 1015.0 | |
| 20260903233516 | 28 | 0.0 | 0.0 | 0.00 | 0.00 | 0.00 | 93 | 1015.0 | |
| 20260903232536 | 28 | 0.0 | 0.0 | 0.00 | 0.00 | 0.00 | 92 | 1015.1 | |
| 20260903231516 | 29 | 0.0 | 0.0 | 0.00 | 0.00 | 0.00 | 91 | 1015.0 | |
| 20260903230515 | 29 | 0.0 | 0.0 | 0.00 | 0.00 | 0.00 | 91 | 1015.1 | |
| 20260903225516 | 30 | 0.0 | 0.0 | 0.00 | 0.00 | 0.00 | 89 | 1014.9 | |
| 20260903224515 | 30 | 0.0 | 0.0 | 0.00 | 0.00 | 0.00 | 88 | 1014.9 | |
| 20260903223535 | 30 | 0.0 | 0.0 | 0.00 | 0.00 | 0.00 | 88 | 1014.8 | |
| 20260903222516 | 30 | 0.0 | 0.0 | 0.00 | 0.00 | 0.00 | 87 | 1014.9 | |
| 20260903221516 | 30 | 0.0 | 0.0 | 0.00 | 0.00 | 0.00 | 84 | 1014.8 | |
| 20260903220556 | 31 | 0.0 | 0.0 | 0.00 | 0.00 | 0.00 | 82 | 1015.0 | |
| 20260903215515 | 31 | 0.0 | 0.0 | 0.00 | 0.00 | 0.00 | 81 | 1015.1 | |
| 20260903214516 | 31 | 0.0 | 0.0 | 0.00 | 0.00 | 0.00 | 80 | 1015.0 | |
| 20260903213516 | 32 | 0.0 | 1.6 | 0.00 | 0.00 | 0.00 | 77 | 1015.1 | |
| 20260903212536 | 33 | 0.0 | 1.6 | 0.00 | 0.00 | 0.00 | 75 | 1015.0 | |
| 20260903211535 | 34 | 0.0 | 0.0 | 0.00 | 0.00 | 0.00 | 71 | 1014.9 | |
| 20260903210515 | 34 | 0.0 | 1.6 | 0.00 | 0.00 | 0.00 | 69 | 1015.1 | |
| 20260903205516 | 34 | 0.0 | 1.6 | 0.00 | 0.00 | 0.00 | 73 | 1015.2 | |
| 20260903204515 | 34 | 0.0 | 1.6 | 0.00 | 0.00 | 0.00 | 71 | 1015.2 | |
| 20260903203516 | 34 | 0.0 | 1.6 | 0.00 | 0.00 | 0.00 | 72 | 1015.4 | |
| 20260903202516 | 35 | 0.0 | 1.6 | 0.00 | 0.00 | 0.00 | 72 | 1015.5 | |
| 20260903201535 | 35 | 0.0 | 0.0 | 0.00 | 0.00 | 0.00 | 72 | 1015.6 | |
| 20260903200516 | 35 | 0.0 | 0.0 | 0.00 | 0.00 | 0.00 | 66 | 1015.7 | |
| 20260903195516 | 35 | 0.0 | 1.6 | 0.00 | 0.00 | 0.00 | 69 | 1015.9 | |
| 20260903194516 | 36 | 0.0 | 1.6 | 0.00 | 0.00 | 0.00 | 65 | 1015.9 | |
| 20260903193516 | 36 | 270 | 1.6 | 3.2 | 0.00 | 0.00 | 0.00 | 67 | 1016.1 |
| 20260903192515 | 36 | 0.0 | 1.6 | 0.00 | 0.00 | 0.00 | 69 | 1016.1 | |
| 20260903191515 | 36 | 0.0 | 1.6 | 0.00 | 0.00 | 0.00 | 69 | 1016.3 | |
| 20260903190536 | 35 | 0.0 | 1.6 | 0.00 | 0.00 | 0.00 | 69 | 1016.4 | |
| 20260903185515 | 35 | 270 | 1.6 | 3.2 | 0.00 | 0.00 | 0.00 | 70 | 1016.7 |
| 20260903184515 | 35 | 0.0 | 1.6 | 0.00 | 0.00 | 0.00 | 71 | 1016.8 | |
| 20260903183515 | 35 | 45 | 1.6 | 4.8 | 0.00 | 0.00 | 0.00 | 69 | 1016.9 |
| 20260903182535 | 35 | 270 | 1.6 | 4.8 | 0.00 | 0.00 | 0.00 | 68 | 1017.0 |
| 20260903181516 | 35 | 68 | 1.6 | 4.8 | 0.00 | 0.00 | 0.00 | 68 | 1017.1 |
| 20260903180515 | 34 | 45 | 1.6 | 3.2 | 0.00 | 0.00 | 0.00 | 71 | 1017.3 |
| 20260903175515 | 34 | 0.0 | 1.6 | 0.00 | 0.00 | 0.00 | 72 | 1017.5 | |
| 20260903174515 | 34 | 0.0 | 4.8 | 0.00 | 0.00 | 0.00 | 73 | 1017.6 | |
| 20260903173515 | 34 | 0 | 1.6 | 3.2 | 0.00 | 0.00 | 0.00 | 73 | 1017.5 |
| 20260903172515 | 34 | 0.0 | 1.6 | 0.00 | 0.00 | 0.00 | 74 | 1017.6 | |
| 20260903171515 | 33 | 45 | 1.6 | 1.6 | 0.00 | 0.00 | 0.00 | 74 | 1017.8 |
| 20260903170515 | 33 | 0.0 | 1.6 | 0.00 | 0.00 | 0.00 | 73 | 1017.8 | |
| 20260903165515 | 33 | 135 | 1.6 | 4.8 | 0.00 | 0.00 | 0.00 | 74 | 1017.8 |
| 20260903164515 | 33 | 0.0 | 1.6 | 0.00 | 0.00 | 0.00 | 75 | 1018.0 | |
| 20260903163515 | 33 | 45 | 1.6 | 1.6 | 0.00 | 0.00 | 0.00 | 76 | 1018.0 |
| 20260903162536 | 32 | 0.0 | 1.6 | 0.00 | 0.00 | 0.00 | 76 | 1018.2 | |
| 20260903161515 | 32 | 0.0 | 1.6 | 0.00 | 0.00 | 0.00 | 76 | 1018.2 | |
| 20260903160515 | 32 | 0.0 | 1.6 | 0.00 | 0.00 | 0.00 | 78 | 1018.2 | |
| 20260903155515 | 32 | 0.0 | 1.6 | 0.00 | 0.00 | 0.00 | 79 | 1018.5 | |
| 20260903154515 | 31 | 68 | 1.6 | 3.2 | 0.00 | 0.00 | 0.00 | 79 | 1018.4 |
| 20260903153515 | 31 | 68 | 1.6 | 6.4 | 0.00 | 0.00 | 0.00 | 80 | 1018.5 |
| 20260903152515 | 31 | 45 | 1.6 | 3.2 | 0.00 | 0.00 | 0.00 | 81 | 1018.6 |
| 20260903151555 | 31 | 0.0 | 3.2 | 0.00 | 0.00 | 0.00 | 81 | 1018.5 | |
| 20260903150535 | 30 | 45 | 1.6 | 3.2 | 0.00 | 0.00 | 0.00 | 81 | 1018.4 |
| 20260903145515 | 30 | 0.0 | 1.6 | 0.00 | 0.00 | 0.00 | 82 | 1018.3 | |
| 20260903144515 | 30 | 0.0 | 1.6 | 0.00 | 0.00 | 0.00 | 82 | 1018.4 | |
| 20260903143515 | 30 | 0.0 | 3.2 | 0.00 | 0.00 | 0.00 | 83 | 1018.2 | |
| 20260903142516 | 30 | 45 | 1.6 | 3.2 | 0.00 | 0.00 | 0.00 | 82 | 1018.2 |
| 20260903141515 | 30 | 0.0 | 3.2 | 0.00 | 0.00 | 0.00 | 82 | 1018.1 | |
| 20260903140515 | 30 | 45 | 1.6 | 1.6 | 0.00 | 0.00 | 0.00 | 80 | 1018.1 |
| 20260903135515 | 30 | 0.0 | 1.6 | 0.00 | 0.00 | 0.00 | 81 | 1017.7 | |
| 20260903134515 | 29 | 0.0 | 1.6 | 0.00 | 0.00 | 0.00 | 82 | 1017.7 | |
| 20260903133515 | 28 | 270 | 1.6 | 4.8 | 0.00 | 0.00 | 0.00 | 82 | 1017.8 |
| 20260903132515 | 28 | 0.0 | 3.2 | 0.00 | 0.00 | 0.00 | 85 | 1017.9 | |
| 20260903131516 | 26 | 0.0 | 1.6 | 0.00 | 0.00 | 0.00 | 90 | 1018.1 | |
| 20260903130515 | 25 | 0.0 | 1.6 | 0.00 | 0.00 | 0.00 | 99 | 1018.1 | |
| 20260903125516 | 25 | 0.0 | 0.0 | 0.00 | 0.00 | 0.00 | 100 | 1018.1 | |
| 20260903124515 | 23 | 0.0 | 3.2 | 0.00 | 0.00 | 0.00 | 100 | 1018.4 | |
| 20260903123515 | 23 | 0.0 | 0.0 | 0.00 | 0.00 | 0.00 | 100 | 1018.4 | |
| 20260903122517 | 22 | 0.0 | 0.0 | 0.00 | 0.00 | 0.00 | 100 | 1018.3 | |
| 20260903121517 | 22 | 0.0 | 0.0 | 0.00 | 0.00 | 0.00 | 100 | 1018.2 | |
| 20260903120517 | 22 | 0.0 | 0.0 | 0.00 | 0.00 | 0.00 | 100 | 1018.3 | |
| 20260903115517 | 22 | 0.0 | 0.0 | 0.00 | 0.00 | 0.00 | 100 | 1018.3 | |
| 20260903114537 | 21 | 0.0 | 0.0 | 0.00 | 0.00 | 0.00 | 100 | 1018.1 | |
| 20260903113537 | 21 | 0.0 | 0.0 | 0.00 | 0.00 | 0.00 | 100 | 1018.0 | |
| 20260903112517 | 21 | 0.0 | 0.0 | 0.00 | 0.00 | 0.00 | 100 | 1017.9 | |
| 20260903111557 | 21 | 0.0 | 0.0 | 0.00 | 0.00 | 0.00 | 100 | 1017.9 | |
| 20260903110517 | 21 | 0.0 | 0.0 | 0.00 | 0.00 | 0.00 | 100 | 1017.8 | |
| 20260903105517 | 21 | 0.0 | 0.0 | 0.00 | 0.00 | 0.00 | 100 | 1017.8 | |
| 20260903104517 | 21 | 0.0 | 0.0 | 0.00 | 0.00 | 0.00 | 100 | 1017.7 | |
| 20260903103517 | 21 | 0.0 | 0.0 | 0.00 | 0.00 | 0.00 | 100 | 1017.7 | |
| 20260903102517 | 22 | 0.0 | 0.0 | 0.00 | 0.00 | 0.00 | 100 | 1017.6 | |
| 20260903101557 | 22 | 0.0 | 0.0 | 0.00 | 0.00 | 0.00 | 100 | 1017.6 | |
| 20260903100517 | 21 | 0.0 | 0.0 | 0.00 | 0.00 | 0.00 | 100 | 1017.7 | |
| 20260903095521 | 22 | 0.0 | 0.0 | 0.00 | 0.00 | 0.00 | 100 | 1017.8 | |
| 20260903094537 | 22 | 0.0 | 0.0 | 0.00 | 0.00 | 0.00 | 100 | 1017.7 | |
| 20260903093537 | 22 | 0.0 | 0.0 | 0.00 | 0.00 | 0.00 | 100 | 1017.6 | |
| 20260903092517 | 22 | 0.0 | 0.0 | 0.00 | 0.00 | 0.00 | 100 | 1017.6 | |
| 20260903091517 | 22 | 0.0 | 0.0 | 0.00 | 0.00 | 0.00 | 100 | 1017.6 | |
| 20260903090517 | 22 | 0.0 | 0.0 | 0.00 | 0.00 | 0.00 | 100 | 1017.4 | |
| 20260903085517 | 22 | 0.0 | 0.0 | 0.00 | 0.00 | 0.00 | 100 | 1017.3 | |
| 20260903084517 | 22 | 0.0 | 0.0 | 0.00 | 0.00 | 0.00 | 100 | 1017.1 | |
| 20260903083517 | 22 | 0.0 | 0.0 | 0.00 | 0.00 | 0.00 | 100 | 1017.2 | |
| 20260903082517 | 22 | 0.0 | 0.0 | 0.00 | 0.00 | 0.00 | 100 | 1017.1 | |
| 20260903081537 | 22 | 0.0 | 0.0 | 0.00 | 0.00 | 0.00 | 100 | 1017.1 | |
| 20260903080517 | 22 | 0.0 | 0.0 | 0.00 | 0.00 | 0.00 | 100 | 1017.3 | |
| 20260903075516 | 22 | 0.0 | 0.0 | 0.00 | 0.00 | 0.00 | 100 | 1017.5 | |
| 20260903074556 | 22 | 0.0 | 0.0 | 0.00 | 0.00 | 0.00 | 100 | 1017.5 | |
| 20260903073517 | 22 | 0.0 | 0.0 | 0.00 | 0.00 | 0.00 | 100 | 1017.6 | |
| 20260903072517 | 22 | 0.0 | 0.0 | 0.00 | 0.00 | 0.00 | 100 | 1017.6 | |
| 20260903071517 | 23 | 0.0 | 0.0 | 0.00 | 0.00 | 0.00 | 100 | 1017.5 | |
| 20260903070517 | 23 | 0.0 | 0.0 | 0.00 | 0.00 | 0.00 | 100 | 1017.5 | |
| 20260903065517 | 23 | 0.0 | 0.0 | 0.00 | 0.00 | 0.00 | 100 | 1017.7 | |
| 20260903064536 | 23 | 0.0 | 0.0 | 0.00 | 0.00 | 0.00 | 100 | 1017.8 | |
| 20260903063517 | 23 | 0.0 | 0.0 | 0.00 | 0.00 | 0.00 | 100 | 1017.8 | |
| 20260903062537 | 23 | 0.0 | 0.0 | 0.00 | 0.00 | 0.00 | 100 | 1017.8 | |
| 20260903061516 | 23 | 0.0 | 1.6 | 0.00 | 0.00 | 0.00 | 100 | 1017.8 | |
| 20260903060537 | 23 | 0.0 | 0.0 | 0.00 | 0.00 | 0.00 | 100 | 1017.7 | |
| 20260903055517 | 23 | 0.0 | 0.0 | 0.00 | 0.00 | 0.00 | 100 | 1017.8 | |
| 20260903054516 | 23 | 0.0 | 0.0 | 0.00 | 0.00 | 0.00 | 100 | 1017.9 | |
| 20260903053517 | 23 | 0.0 | 0.0 | 0.00 | 0.00 | 0.00 | 100 | 1018.0 | |
| 20260903052520 | 23 | 0.0 | 0.0 | 0.00 | 0.00 | 0.00 | 99 | 1018.2 | |
| 20260903051537 | 23 | 0.0 | 0.0 | 0.00 | 0.00 | 0.00 | 99 | 1018.3 | |
| 20260903050516 | 23 | 0.0 | 1.6 | 0.00 | 0.00 | 0.00 | 99 | 1018.3 | |
| 20260903045516 | 23 | 0.0 | 0.0 | 0.00 | 0.00 | 0.00 | 99 | 1018.4 | |
| 20260903044516 | 23 | 0.0 | 1.6 | 0.00 | 0.00 | 0.00 | 99 | 1018.2 | |
| 20260903043517 | 23 | 0.0 | 0.0 | 0.00 | 0.00 | 0.00 | 99 | 1018.2 | |
| 20260903042516 | 23 | 0.0 | 0.0 | 0.00 | 0.00 | 0.00 | 99 | 1018.3 | |
| 20260903041517 | 23 | 0.0 | 0.0 | 0.00 | 0.00 | 0.00 | 99 | 1018.0 | |
| 20260903040517 | 23 | 0.0 | 0.0 | 0.00 | 0.00 | 0.00 | 99 | 1017.8 | |
| 20260903035516 | 23 | 0.0 | 0.0 | 0.00 | 0.00 | 0.00 | 99 | 1017.8 | |
| 20260903034516 | 23 | 0.0 | 0.0 | 0.00 | 0.00 | 0.00 | 99 | 1017.8 | |
| 20260903033517 | 23 | 0.0 | 0.0 | 0.00 | 0.00 | 0.00 | 98 | 1017.7 | |
| 20260903032516 | 24 | 0.0 | 0.0 | 0.00 | 0.00 | 0.00 | 98 | 1017.6 | |
| 20260903031516 | 24 | 0.0 | 0.0 | 0.00 | 0.00 | 0.00 | 98 | 1017.6 | |
| 20260903030516 | 24 | 0.0 | 0.0 | 0.00 | 0.00 | 0.00 | 98 | 1017.6 | |
| 20260903025517 | 24 | 0.0 | 0.0 | 0.00 | 0.00 | 0.00 | 98 | 1017.8 | |
| 20260903024516 | 24 | 0.0 | 0.0 | 0.00 | 0.00 | 0.00 | 98 | 1017.7 | |
| 20260903023516 | 25 | 0.0 | 0.0 | 0.00 | 0.00 | 0.00 | 98 | 1017.8 | |
| 20260903022516 | 25 | 0.0 | 0.0 | 0.00 | 0.00 | 0.00 | 98 | 1017.9 | |
| 20260903021536 | 25 | 0.0 | 0.0 | 0.00 | 0.00 | 0.00 | 97 | 1017.9 | |
| 20260903020516 | 25 | 0.0 | 0.0 | 0.00 | 0.00 | 0.00 | 97 | 1018.1 | |
| 20260903015536 | 25 | 0.0 | 0.0 | 0.00 | 0.00 | 0.00 | 97 | 1018.3 | |
| 20260903014516 | 25 | 0.0 | 0.0 | 0.00 | 0.00 | 0.00 | 97 | 1018.4 | |
| 20260903013516 | 25 | 0.0 | 0.0 | 0.00 | 0.00 | 0.00 | 97 | 1018.1 | |
| 20260903012516 | 25 | 0.0 | 0.0 | 0.00 | 0.00 | 0.00 | 96 | 1018.2 | |
| 20260903011516 | 25 | 0.0 | 0.0 | 0.00 | 0.00 | 0.00 | 96 | 1018.2 | |
| 20260903010516 | 25 | 0.0 | 0.0 | 0.00 | 0.00 | 0.00 | 96 | 1018.2 | |
| 20260903005556 | 26 | 0.0 | 0.0 | 0.00 | 0.00 | 0.00 | 95 | 1018.1 | |
| 20260903004536 | 26 | 0.0 | 0.0 | 0.00 | 0.00 | 0.00 | 95 | 1018.1 | |
| 20260903003516 | 26 | 0.0 | 0.0 | 0.00 | 0.00 | 0.00 | 94 | 1017.7 | |
| 20260903002536 | 26 | 0.0 | 0.0 | 0.00 | 0.00 | 0.00 | 93 | 1017.6 | |
| 20260903001516 | 27 | 0.0 | 0.0 | 0.00 | 0.00 | 0.00 | 93 | 1017.6 |